Aeroporto :
LOGIN :

Iscrizione | Disclaimer

   EN    FR    IT 

 










Sommario :    VFR   VFR Marginale   IFR   IFR Intensivo   IFR Molto Intensivo
Visibilità : 
Base nubi : 
>= 8 km
>= 3000ft
5 / 8 km
1000 / 3000 ft
1500m / 5 km
500 / 1000 ft
800 / 1500m
200 / 500 ft
< 800m
< 200 ft
Simboli :   Temporali  Nebbia  Neve Forte  Precipitazioni Forti  Vento > 20 kt
SIGMETs :   Varie  Temporali  Ghiacco  Turbolenza  Onda orograficha  Ceneri Vulcaniche







- Altitudine del aeroporto : 46 ft
- Codice IATA : PAF


LPMT - Montijo Air Base

ULTIMO METAR :
  • 201900Z 35010KT CAVOK 12/08 Q1022

METARs OBSOLETI :
  • 201800Z 34006KT 310V010 9999 FEW030 12/08 Q1021
  • 201700Z 35012KT 9999 FEW035 13/06 Q1021
  • 201600Z 35011KT 9999 FEW038 15/07 Q1020

TAF TAF LPMT
Valido dal 20 a 18 ore il 21 a 18 ore UTC


201708Z 2018/2118 35008KT 9999 FEW030
Nessun NOTAM noto per questo aeroporto.



MetMap, La meteo Aeronautica in un colpo d'occhio ! - Copyright ORBIFLY Dicembre 2007 - Disclaimer

ORBIFLY MET'MAP TEAM :

Programmazione e sviluppo : Alexandra Zaïnal
Concezione e sviluppo : Baudouin d'Aumeries
Co-Programmazione e sviluppo : Marc-Olivier Méhu
Supporto tecnico e logistico : Manuel Goepfert
Aiuto per la traduzione : Arnaldo La Scala

Contatto : metmap@orbifly.com




FONTI E CREDITI :

   NOAA